This demonstration page uses our WeatherBlox Daily Observations layout. Learn more.

Left ArrowRight Arrow

38.20091, -84.87328

Hourly Observations for February 22, 2015

Temp ( °F °C ) Dew Point ( °F °C ) Humidity (%) Winds ( mph kmh ) Pressure ( in mb ) Visibility ( mi km ) Precip ( " mm )
12:53 am 00:53 Cloudy 33 0.6 30 -1.1 89 89 N 3 6 30.13 1020 10 16 0.00 0.00
1:53 am 01:53 Cloudy 32 0 28 -2.2 85 85 N 9 15 30.15 1021 10 16 0.00 0.00
2:53 am 02:53 Cloudy 32 0 28 -2.2 85 85 N 7 11 30.15 1021 10 16 0.00 0.00
3:53 am 03:53 Cloudy 31 -0.6 28 -2.2 89 89 N 6 9 30.16 1022 10 16 0.00 0.00
4:53 am 04:53 Cloudy 30 -1.1 27 -2.8 88 88 NE 6 9 30.19 1023 10 16 0.00 0.00
5:42 am 05:42 Cloudy 30 -1.1 26 -3.3 85 85 NNE 5 7 30.27 1025 10 16 0.00 0.00
5:53 am 05:53 Cloudy 30 -1.1 26 -3.3 85 85 NNE 5 7 30.23 1024 10 16 0.00 0.00
6:25 am 06:25 Cloudy 30 -1.1 26 -3.3 85 85 NNW 6 9 30.27 1025 10 16 0.00 0.00
6:53 am 06:53 Cloudy 29 -1.7 26 -3.3 89 89 NNW 5 7 30.24 1024 10 16 0.00 0.00
7:53 am 07:53 Cloudy with Mist and Fog 29 -1.7 26 -3.3 89 89 NNW 6 9 30.26 1025 6 10 0.00 0.00
8:53 am 08:53 Cloudy with Mist and Fog 29 -1.7 25 -3.9 85 85 NNE 5 7 30.28 1026 6 10 0.00 0.00
9:09 am 09:09 Partly Cloudy 29 -1.7 24 -4.4 82 82 Calm 30.33 1027 7 11 0.00 0.00
9:53 am 09:53 Mostly Cloudy 31 -0.6 24 -4.4 76 76 Calm 30.31 1026 8 13 0.00 0.00
10:02 am 10:02 Mostly Sunny 31 -0.6 24 -4.4 76 76 NNW 5 7 30.36 1028 8 13 0.00 0.00
10:53 am 10:53 Mostly Sunny 32 0 25 -3.9 75 75 Calm 30.31 1026 8 13 0.00 0.00
11:23 am 11:23 Mostly Cloudy 34 1.1 25 -3.9 70 70 N 5 7 30.36 1028 8 13 0.00 0.00
11:32 am 11:32 Partly Cloudy 34 1.1 25 -3.9 70 70 Calm 30.36 1028 9 14 0.00 0.00
11:53 am 11:53 Partly Cloudy 34 1.1 25 -3.9 70 70 Calm 30.33 1027 9 14 0.00 0.00
12:53 pm 12:53 Sunny 37 2.8 24 -4.4 59 59 NE 3 6 30.32 1027 10 16 0.00 0.00
1:53 pm 13:53 Mostly Cloudy 37 2.8 25 -3.9 62 62 WNW 5 7 30.32 1027 10 16 0.00 0.00
2:53 pm 14:53 Cloudy 36 2.2 25 -3.9 64 64 NW 8 13 30.31 1027 10 16 0.00 0.00
3:53 pm 15:53 Cloudy 34 1.1 26 -3.3 73 73 NW 10 17 30.33 1027 8 13 0.00 0.00
4:53 pm 16:53 Cloudy 33 0.6 25 -3.9 72 72 NNW 5 7 30.35 1028 8 13 0.00 0.00
5:53 pm 17:53 Cloudy 32 0 24 -4.4 73 73 NNW 10 17 30.37 1028 9 14 0.00 0.00
6:53 pm 18:53 Cloudy 32 0 22 -5.6 66 66 N 5 7 30.40 1030 9 14 0.00 0.00
7:53 pm 19:53 Cloudy 31 -0.6 22 -5.6 69 69 NNW 8 13 30.42 1030 8 13 0.00 0.00
8:53 pm 20:53 Cloudy 30 -1.1 22 -5.6 72 72 NW 8 13 30.43 1031 7 11 0.00 0.00
9:48 pm 21:48 Cloudy 30 -1 19 -7 64 64 NNW 9 15 30.45 1031 8 13 0.00 0.00
9:53 pm 21:53 Cloudy 30 -1.1 20 -6.7 66 66 NNW 9 15 30.45 1031 8 13 0.00 0.00
10:45 pm 22:45 Cloudy 29 -1.7 20 -6.7 69 69 N 8 13 30.45 1031 8 13 0.00 0.00
10:53 pm 22:53 Cloudy 29 -1.7 21 -6.1 72 72 NNW 7 11 30.45 1031 8 13 0.00 0.00
11:44 pm 23:44 Cloudy 27 -2.8 19 -7.2 72 72 NNW 13 20 30.48 1032 9 14 0.00 0.00
11:53 pm 23:53 Cloudy 27 -2.8 18 -7.8 69 69 N 12 19 30.46 1031 9 14 0.00 0.00

Powered by AerisWeather